Chula Vista (153, 154, 645) Station Data

Red Flag Warning: No
Fire Weather Zone: 243
SDGE Region: Metro
Lat/Lon: 32.602/-117.058

Observations

Time Wind Speed/Gust Temp(F) RH Fuel Moist Fuel Temp(F) Dewpt(F) Tmax(F) Tmin(F) Accum Precip 10-min Precip SL Press(mb)
4/26 2:40am 87 5 G 5 55° 83% - - 50° 59.1° 54.8° - - -
4/26 2:30am 97 4 G 5 55° 82% - - 50° 59.1° 54.9° - - -
4/26 2:20am 101 3 G 4 56° 82% - - 51° 59.1° 55.5° - - -
4/26 2:10am 96 3 G 4 57° 82% - - 51° 59.1° 56° - - -
4/26 2:00am 76 2 G 3 58° 83% - - 52° 59.1° 56° - - -
4/26 1:50am 66 2 G 3 57° 83% - - 52° 59.1° 56° - - -
4/26 1:40am 73 3 G 4 57° 82% - - 51° 59.1° 56° - - -
4/26 1:30am 88 3 G 4 57° 82% - - 51° 59.1° 56° - - -
4/26 1:20am 93 3 G 4 57° 82% - - 51° 59.1° 56° - - -
4/26 1:10am 86 3 G 4 56° 81% - - 51° 59.1° 56° - - -
4/26 1:00am 98 4 G 5 57° 80% - - 51° 59.1° 56.2° - - -
4/26 12:50am 102 3 G 4 58° 79% - - 51° 59.1° 57° - - -
4/26 12:40am 113 1 G 2 58° 79% - - 52° 59.1° 57.6° - - -
4/26 12:30am 111 2 G 3 58° 80% - - 52° 59.1° 57.7° - - -
4/26 12:20am 117 2 G 2 58° 79% - - 52° 59.1° 57.7° - - -
4/26 12:10am 119 2 G 3 58° 79% - - 52° 59.1° 58.1° - - -
4/26 12:00am 131 2 G 3 59° 80% - - 53° 67° 58.4° - - -
4/25 11:50pm 123 1 G 2 59° 80% - - 53° 67° 58.6° - - -
4/25 11:40pm 173 0 G 1 59° 80% - - 53° 67° 58.7° - - -
4/25 11:30pm 149 1 G 2 59° 79% - - 53° 67° 58.7° - - -
4/25 11:20pm 188 1 G 3 59° 79% - - 53° 67° 58.7° - - -
4/25 11:10pm 180 1 G 2 59° 79% - - 53° 67° 58.7° - - -
4/25 11:00pm 204 2 G 3 60° 78% - - 53° 67° 58.7° - - -
4/25 10:50pm 187 1 G 2 60° 78% - - 53° 67° 58.7° - - -
4/25 10:40pm 179 1 G 2 60° 77% - - 53° 67° 58.7° - - -
4/25 10:30pm 153 1 G 2 60° 77% - - 53° 67° 58.7° - - -
4/25 10:20pm 175 1 G 3 60° 77% - - 53° 67° 58.7° - - -
4/25 10:10pm 161 1 G 3 60° 77% - - 53° 67° 58.7° - - -
4/25 10:00pm 178 2 G 3 61° 76% - - 53° 67° 58.7° - - -
4/25 9:50pm 216 2 G 3 61° 76% - - 53° 67° 58.7° - - -
4/25 9:40pm 227 2 G 3 61° 76% - - 53° 67° 58.7° - - -
4/25 9:30pm 173 1 G 3 61° 77% - - 53° 67° 58.7° - - -
4/25 9:20pm 151 2 G 4 61° 77% - - 54° 67° 58.7° - - -
4/25 9:10pm 268 1 G 3 61° 77% - - 54° 67° 58.7° - - -
4/25 9:00pm 273 4 G 6 61° 77% - - 54° 67° 58.7° - - -
4/25 8:50pm 271 4 G 8 61° 77% - - 54° 67° 58.7° - - -
4/25 8:40pm 260 5 G 7 61° 76% - - 54° 67° 58.7° - - -
4/25 8:30pm 259 4 G 5 61° 76% - - 54° 67° 58.7° - - -
4/25 8:20pm 255 5 G 6 61° 76% - - 54° 67° 58.7° - - -
4/25 8:10pm 241 5 G 8 62° 75% - - 54° 67° 58.7° - - -
4/25 8:00pm 229 5 G 8 62° 75% - - 54° 67° 58.7° - - -
4/25 7:50pm 242 5 G 7 62° 74% - - 54° 67° 58.7° - - -
4/25 7:40pm 261 5 G 7 62° 72% - - 53° 67° 58.7° - - -
4/25 7:30pm 257 5 G 9 62° 72% - - 53° 67° 58.7° - - -
4/25 7:20pm 261 6 G 8 62° 72% - - 53° 67° 58.7° - - -
4/25 7:10pm 277 6 G 8 62° 71% - - 53° 67° 58.7° - - -
4/25 7:00pm 284 7 G 9 63° 69% - - 52° 67° 58.7° - - -
4/25 6:50pm 271 8 G 11 63° 68% - - 52° 67° 58.7° - - -
4/25 6:40pm 278 6 G 10 63° 69% - - 53° 67° 58.7° - - -
4/25 6:30pm 259 7 G 11 63° 67% - - 52° 67° 58.7° - - -
4/25 6:20pm 264 7 G 11 64° 63% - - 51° 67° 58.7° - - -
4/25 6:10pm 268 7 G 10 64° 61% - - 51° 67° 58.7° - - -
4/25 6:00pm 271 8 G 11 64° 62% - - 51° 67° 58.7° - - -
4/25 5:50pm 264 8 G 11 64° 65% - - 52° 67° 58.7° - - -
4/25 5:40pm 265 9 G 13 63° 68% - - 53° 67° 58.7° - - -
4/25 5:30pm 252 9 G 14 64° 67% - - 53° 67° 58.7° - - -
4/25 5:20pm 268 9 G 12 64° 68% - - 53° 67° 58.7° - - -
4/25 5:10pm 255 8 G 13 64° 66% - - 53° 67° 58.7° - - -
4/25 5:00pm 273 9 G 12 64° 67% - - 53° 67° 58.7° - - -
4/25 4:50pm 265 9 G 13 64° 66% - - 53° 67° 58.7° - - -
4/25 4:40pm 246 8 G 13 64° 67% - - 53° 67° 58.7° - - -
4/25 4:30pm 250 9 G 13 64° 68% - - 53° 67° 58.7° - - -
4/25 4:20pm 247 8 G 14 64° 68% - - 53° 67° 58.7° - - -
4/25 4:10pm 244 9 G 16 64° 69% - - 54° 67° 58.7° - - -
4/25 4:00pm 259 9 G 15 64° 69% - - 54° 67° 58.7° - - -
4/25 3:50pm 255 9 G 14 64° 69% - - 54° 67° 58.7° - - -
4/25 3:40pm 271 8 G 12 65° 68% - - 54° 67° 58.7° - - -
4/25 3:30pm 267 9 G 14 64° 69% - - 54° 67° 58.7° - - -
4/25 3:20pm 261 8 G 14 64° 68% - - 54° 67° 58.7° - - -
4/25 3:10pm 257 9 G 15 64° 68% - - 54° 67° 58.7° - - -
4/25 3:00pm 274 9 G 14 64° 69% - - 54° 67° 58.7° - - -
4/25 2:50pm 269 10 G 15 64° 69% - - 54° 67° 58.7° - - -
4/25 2:40pm 259 9 G 14 64° 69% - - 54° 67° 58.7° - - -
4/25 2:30pm 264 8 G 14 64° 70% - - 54° 67° 58.7° - - -
4/25 2:20pm 273 8 G 12 64° 70% - - 54° 67° 58.7° - - -
4/25 2:10pm 269 8 G 15 63° 72% - - 54° 67° 58.7° - - -
4/25 2:00pm 272 9 G 14 63° 73% - - 55° 67° 58.7° - - -
4/25 1:50pm 274 8 G 17 64° 71% - - 54° 67° 58.7° - - -
4/25 1:40pm 272 9 G 14 63° 72% - - 54° 67° 58.7° - - -
4/25 1:30pm 259 9 G 14 64° 72% - - 54° 67° 58.7° - - -
4/25 1:20pm 261 8 G 16 64° 71% - - 55° 67° 58.7° - - -
4/25 1:10pm 263 10 G 16 64° 72% - - 54° 67° 58.7° - - -
4/25 1:00pm 271 10 G 15 64° 71% - - 55° 67° 58.7° - - -
4/25 12:50pm 267 11 G 16 64° 71% - - 55° 67° 58.7° - - -
4/25 12:40pm 262 11 G 18 64° 70% - - 54° 67° 58.7° - - -
4/25 12:30pm 266 11 G 16 65° 69% - - 54° 67° 58.7° - - -
4/25 12:20pm 257 11 G 17 65° 70% - - 55° 67° 58.7° - - -
4/25 12:10pm 252 10 G 16 64° 70% - - 55° 67° 58.7° - - -
4/25 12:00pm 243 10 G 15 64° 71% - - 55° 67° 58.7° - - -
4/25 11:50am 244 10 G 15 64° 70% - - 55° 67° 58.7° - - -
4/25 11:40am 244 9 G 16 65° 68% - - 54° 67° 58.7° - - -
4/25 11:30am 225 8 G 14 65° 66% - - 53° 67° 58.7° - - -
4/25 11:20am 240 10 G 15 65° 66% - - 53° 67° 58.7° - - -
4/25 11:10am 244 9 G 14 66° 64% - - 53° 67° 58.7° - - -
4/25 11:00am 227 7 G 13 66° 63% - - 53° 66.9° 58.7° - - -
4/25 10:50am 236 7 G 17 65° 65% - - 53° 66.4° 58.7° - - -
4/25 10:40am 249 9 G 14 65° 67% - - 54° 65.7° 58.7° - - -
4/25 10:30am 242 8 G 14 64° 68% - - 54° 65.3° 58.7° - - -
4/25 10:20am 235 8 G 12 64° 69% - - 54° 64.9° 58.7° - - -
4/25 10:10am 224 7 G 12 64° 69% - - 54° 64.8° 58.7° - - -
4/25 10:00am 216 6 G 11 64° 71% - - 54° 64.4° 58.7° - - -
4/25 9:50am 226 7 G 13 63° 74% - - 54° 64.4° 58.7° - - -
4/25 9:40am 220 7 G 12 62° 74% - - 54° 64.4° 58.7° - - -
4/25 9:30am 226 8 G 14 62° 73% - - 54° 64.4° 58.7° - - -
4/25 9:20am 225 7 G 13 63° 71% - - 54° 64.4° 58.7° - - -
4/25 9:10am 206 6 G 11 64° 69% - - 53° 64.4° 58.7° - - -
4/25 9:00am 180 4 G 10 63° 69% - - 53° 64° 58.7° - - -
4/25 8:50am 183 5 G 9 63° 69% - - 53° 63.7° 58.7° - - -
4/25 8:40am 197 6 G 12 63° 70% - - 53° 63.3° 58.7° - - -
4/25 8:30am 199 5 G 8 63° 70% - - 53° 63.3° 58.7° - - -
4/25 8:20am 181 4 G 7 63° 71% - - 53° 63.3° 58.7° - - -
4/25 8:10am 186 4 G 8 62° 74% - - 53° 62.8° 58.7° - - -
4/25 8:00am 186 6 G 9 62° 74% - - 53° 62.3° 58.7° - - -
4/25 7:50am 193 4 G 7 62° 73% - - 53° 62.1° 58.7° - - -
4/25 7:40am 188 3 G 5 61° 74% - - 53° 62.1° 58.7° - - -
4/25 7:30am 151 2 G 3 61° 75% - - 53° 61.8° 58.7° - - -
4/25 7:20am 130 2 G 5 61° 76% - - 53° 61.5° 58.7° - - -
4/25 7:10am 126 3 G 5 60° 77% - - 53° 61.5° 58.7° - - -
4/25 7:00am 99 3 G 5 60° 77% - - 53° 61.5° 58.7° - - -
4/25 6:50am 125 3 G 5 60° 77% - - 53° 61.5° 58.7° - - -
4/25 6:40am 161 1 G 3 60° 78% - - 53° 61.5° 58.7° - - -
4/25 6:30am 146 2 G 5 60° 78% - - 53° 61.5° 58.7° - - -
4/25 6:20am 136 2 G 4 59° 78% - - 53° 61.5° 58.7° - - -
4/25 6:10am 157 2 G 4 59° 78% - - 53° 61.5° 58.7° - - -
4/25 6:00am 146 3 G 5 59° 78% - - 53° 61.5° 58.7° - - -
4/25 5:50am 146 3 G 6 59° 79% - - 53° 61.5° 58.7° - - -
4/25 5:40am 157 4 G 6 59° 79% - - 53° 61.5° 58.7° - - -
4/25 5:30am 151 4 G 7 59° 79% - - 53° 61.5° 58.7° - - -
4/25 5:20am 160 3 G 5 59° 80% - - 53° 61.5° 58.7° - - -
4/25 5:10am 159 3 G 6 60° 80% - - 53° 61.5° 58.7° - - -
4/25 5:00am 156 3 G 5 60° 80% - - 53° 61.5° 58.7° - - -
4/25 4:50am 152 3 G 7 60° 80% - - 53° 61.5° 58.7° - - -
4/25 4:40am 155 3 G 6 60° 80% - - 53° 61.5° 58.7° - - -
4/25 4:30am 163 2 G 5 60° 80% - - 53° 61.5° 58.7° - - -
4/25 4:20am 180 3 G 5 59° 81% - - 53° 61.5° 58.7° - - -
4/25 4:10am 152 3 G 5 59° 83% - - 54° 61.5° 58.7° - - -
4/25 4:00am 144 3 G 7 59° 83% - - 54° 61.5° 58.7° - - -
4/25 3:50am 149 4 G 6 59° 82% - - 54° 61.5° 58.7° - - -
4/25 3:40am 139 4 G 7 59° 82% - - 54° 61.5° 58.7° - - -
4/25 3:30am 141 5 G 9 59° 83% - - 54° 61.5° 58.7° - - -
4/25 3:20am 161 4 G 8 59° 83% - - 54° 61.5° 58.7° - - -
4/25 3:10am 154 4 G 9 59° 84% - - 54° 61.5° 58.7° - - -
4/25 3:00am 201 5 G 10 59° 82% - - 54° 61.5° 58.8° - - -
4/25 2:50am 174 4 G 8 60° 81% - - 54° 61.5° 59.2° - - -
4/25 2:40am 155 3 G 6 60° 81% - - 54° 61.5° 59.4° - - -
4/25 2:30am 187 3 G 7 60° 78% - - 53° 61.5° 59.5° - - -
4/25 2:20am 189 5 G 9 60° 76% - - 52° 61.5° 59.7° - - -
4/25 2:10am 187 5 G 7 61° 74% - - 52° 61.5° 60.1° - - -
4/25 2:00am 191 4 G 7 61° 72% - - 52° 61.5° 60.3° - - -
4/25 1:50am 176 4 G 8 61° 71% - - 51° 61.5° 60.3° - - -
4/25 1:40am 178 4 G 8 61° 71% - - 51° 61.5° 60.3° - - -
4/25 1:30am 197 3 G 6 61° 70% - - 51° 61.5° 60.3° - - -
4/25 1:20am 186 3 G 6 61° 71% - - 51° 61.5° 60.3° - - -
4/25 1:10am 202 3 G 6 61° 71% - - 51° 61.5° 60.3° - - -
4/25 1:00am 200 3 G 5 61° 72% - - 52° 61.5° 60.3° - - -
4/25 12:50am 188 3 G 5 61° 73% - - 52° 61.5° 60.3° - - -
4/25 12:40am 193 3 G 5 61° 73% - - 52° 61.5° 60.3° - - -
4/25 12:30am 202 4 G 7 61° 73% - - 52° 61.5° 60.3° - - -
4/25 12:20am 214 4 G 7 61° 72% - - 52° 61.5° 60.3° - - -
4/25 12:10am 194 5 G 8 61° 70% - - 51° 61.5° 60.4° - - -
4/25 12:00am 204 5 G 8 61° 69% - - 51° 68° 59.2° - - -
4/24 11:50pm 233 5 G 8 61° 70% - - 51° 68° 59.2° - - -
4/24 11:40pm 234 6 G 10 61° 73% - - 52° 68° 59.2° - - -
4/24 11:30pm 230 4 G 6 61° 74% - - 53° 68° 59.2° - - -
4/24 11:20pm 221 3 G 6 61° 74% - - 52° 68° 59.2° - - -
4/24 11:10pm 197 4 G 6 61° 75% - - 53° 68° 59.2° - - -
4/24 11:00pm 210 4 G 7 61° 74% - - 53° 68° 59.2° - - -
4/24 10:50pm 201 4 G 7 61° 74% - - 52° 68° 59.2° - - -
4/24 10:40pm 201 4 G 8 61° 72% - - 52° 68° 59.2° - - -
4/24 10:30pm 199 4 G 7 61° 73% - - 52° 68° 59.2° - - -
4/24 10:20pm 197 6 G 11 60° 75% - - 52° 68° 59.2° - - -
4/24 10:10pm 193 5 G 9 61° 75% - - 53° 68° 59.2° - - -
4/24 10:00pm 201 6 G 9 61° 75% - - 53° 68° 59.2° - - -
4/24 9:50pm 205 5 G 9 61° 76% - - 53° 68° 59.2° - - -
4/24 9:40pm 192 4 G 8 61° 76% - - 53° 68° 59.2° - - -
4/24 9:30pm 185 3 G 5 61° 75% - - 53° 68° 59.2° - - -
4/24 9:20pm 199 3 G 6 61° 74% - - 53° 68° 59.2° - - -
4/24 9:10pm 177 3 G 4 61° 74% - - 53° 68° 59.2° - - -
4/24 9:00pm 178 3 G 4 61° 75% - - 53° 68° 59.2° - - -
4/24 8:50pm 179 3 G 5 61° 75% - - 53° 68° 59.2° - - -
4/24 8:40pm 186 3 G 6 61° 75% - - 53° 68° 59.2° - - -
4/24 8:30pm 179 3 G 6 61° 75% - - 53° 68° 59.2° - - -
4/24 8:20pm 204 4 G 7 61° 75% - - 53° 68° 59.2° - - -
4/24 8:10pm 202 4 G 9 61° 75% - - 53° 68° 59.2° - - -
4/24 8:00pm 203 4 G 6 61° 76% - - 53° 68° 59.2° - - -
4/24 7:50pm 201 3 G 6 61° 75% - - 53° 68° 59.2° - - -
4/24 7:40pm 198 5 G 9 61° 75% - - 53° 68° 59.2° - - -
4/24 7:30pm 212 5 G 8 61° 75% - - 53° 68° 59.2° - - -
4/24 7:20pm 221 6 G 10 61° 75% - - 53° 68° 59.2° - - -
4/24 7:10pm 217 6 G 9 61° 75% - - 53° 68° 59.2° - - -
4/24 7:00pm 231 6 G 9 61° 75% - - 53° 68° 59.2° - - -
4/24 6:50pm 226 5 G 11 61° 74% - - 53° 68° 59.2° - - -
4/24 6:40pm 234 6 G 10 61° 74% - - 53° 68° 59.2° - - -
4/24 6:30pm 233 6 G 9 62° 73% - - 53° 68° 59.2° - - -
4/24 6:20pm 230 6 G 9 62° 71% - - 53° 68° 59.2° - - -
4/24 6:10pm 234 4 G 7 62° 72% - - 53° 68° 59.2° - - -
4/24 6:00pm 212 5 G 9 62° 72% - - 53° 68° 59.2° - - -